Location: Unspecified
(0.0000°N, 0.0000°E)
Time: 15:06:07
(UTC+00:00)

deb Explorer IX - All Passes

Search period start: 13 December 2018 00:00
Search period end: 23 December 2018 00:00
Orbit: 543 x 1112 km, 38.8° (Epoch: 12 December)

Date Brightness Start Highest point End Pass type
(mag) Time Alt. Az. Time Alt. Az. Time Alt. Az.
13 Dec - 02:08:45 10° N 02:13:07 23° NE 02:18:00 10° E visible
13 Dec - 03:54:16 10° WNW 04:00:13 61° SW 04:07:05 10° SE visible
13 Dec - 05:45:30 10° WSW 05:48:15 13° SW 05:51:05 10° S daylight
13 Dec - 14:52:52 10° SW 14:58:27 57° SE 15:03:10 10° ENE daylight
13 Dec - 16:42:07 10° W 16:45:12 16° NW 16:48:04 10° N daylight
14 Dec - 01:47:29 10° N 01:51:44 23° NE 01:56:32 10° E visible
14 Dec - 03:33:02 10° WNW 03:38:47 58° SW 03:45:30 10° SE visible
14 Dec - 05:24:38 10° SW 05:26:51 12° SSW 05:29:08 10° SSW visible
14 Dec - 12:48:34 10° SSE 12:49:17 10° SSE 12:50:00 10° SE daylight
14 Dec - 14:31:19 10° SW 14:37:08 60° SE 14:42:00 10° ENE daylight
14 Dec - 16:20:44 10° W 16:23:54 16° NW 16:26:48 10° N daylight
15 Dec - 01:26:13 10° N 01:30:23 23° NE 01:35:02 10° E visible
15 Dec - 03:11:49 10° WNW 03:17:23 55° SW 03:23:54 10° SE visible
15 Dec - 05:03:58 10° SW 05:05:26 11° SSW 05:06:57 10° SSW visible
15 Dec - 12:26:02 10° SSE 12:27:56 11° SSE 12:29:46 10° SE daylight
15 Dec - 14:09:46 10° SW 14:15:46 64° SE 14:20:49 10° ENE daylight
15 Dec - 15:59:21 10° W 16:02:34 16° NW 16:05:32 10° N daylight
16 Dec - 01:04:57 10° N 01:09:00 23° NE 01:13:35 10° E night (unlit)
16 Dec - 02:50:36 10° WNW 02:55:58 52° SW 03:02:18 10° SE visible
16 Dec - 12:03:58 10° S 12:06:34 12° SSE 12:09:02 10° ESE daylight
16 Dec - 13:48:12 10° SW 13:54:24 68° SE 13:59:37 10° ENE daylight
16 Dec - 15:37:55 10° W 15:41:14 16° NW 15:44:17 10° N daylight
17 Dec - 00:43:41 10° N 00:47:38 24° NE 00:52:06 10° E night (unlit)
17 Dec - 02:29:24 10° WNW 02:34:35 48° SW 02:40:41 10° SE visible
17 Dec - 11:42:01 10° S 11:45:10 14° SSE 11:48:08 10° ESE daylight
17 Dec - 13:26:37 10° SW 13:33:01 72° SE 13:38:24 10° NE daylight
17 Dec - 15:16:29 10° W 15:19:53 16° NW 15:23:00 10° N daylight
18 Dec - 00:22:25 10° N 00:26:16 24° NE 00:30:37 10° E night (unlit)
18 Dec - 02:08:12 10° WNW 02:13:12 45° SW 02:19:04 10° SSE visible
18 Dec - 11:20:09 10° S 11:23:45 15° SE 11:27:08 10° ESE daylight
18 Dec - 13:05:01 10° SW 13:11:35 75° SE 13:17:09 10° NE daylight
18 Dec - 14:55:01 10° W 14:58:30 16° NW 15:01:42 10° N daylight
19 Dec - 00:01:09 10° N 00:04:56 24° NE 00:09:10 10° E night (unlit)
19 Dec - 01:47:01 10° WNW 01:51:49 42° SW 01:57:27 10° SSE visible
19 Dec - 10:58:20 10° S 11:02:19 16° SE 11:06:04 10° ESE daylight
19 Dec - 12:43:24 10° SW 12:50:09 79° SE 12:55:53 10° NE daylight
19 Dec - 14:33:31 10° W 14:37:06 16° NW 14:40:24 10° N daylight
19 Dec - 23:39:52 10° NNW 23:43:35 24° NE 23:47:43 10° E night (unlit)
20 Dec - 01:25:50 10° WNW 01:30:27 39° SW 01:35:50 10° SSE visible
20 Dec - 10:36:32 10° S 10:40:52 17° SE 10:44:56 10° ESE daylight
20 Dec - 12:21:47 10° SW 12:28:41 82° SE 12:34:36 10° NE daylight
20 Dec - 14:12:01 10° W 14:15:42 16° NW 14:19:05 10° N daylight
20 Dec - 23:18:36 10° NNW 23:22:14 25° NE 23:26:17 10° E night (unlit)
21 Dec - 01:04:40 10° WNW 01:09:05 37° SW 01:14:13 10° SSE night (unlit)
21 Dec - 10:14:46 10° S 10:19:23 18° SE 10:23:45 10° ESE daylight
21 Dec - 12:00:10 10° SW 12:07:12 85° SE 12:13:17 10° NE daylight
21 Dec - 13:50:30 10° W 13:54:16 16° NW 13:57:45 10° N daylight
21 Dec - 22:57:18 10° NNW 23:00:53 25° NE 23:04:51 10° E night (unlit)
22 Dec - 00:43:29 10° WNW 00:47:43 34° SW 00:52:36 10° SSE night (unlit)
22 Dec - 09:53:01 10° S 09:57:54 19° SE 10:02:31 10° E daylight
22 Dec - 11:38:33 10° SW 11:45:42 88° SE 11:51:56 10° NE daylight
22 Dec - 13:28:59 10° W 13:32:49 16° NW 13:36:23 10° N daylight
22 Dec - 22:36:00 10° NNW 22:39:33 26° NE 22:43:27 10° E night (unlit)
